Regional Weather Roundup
Issued by NWS

Home | Current Version | Previous Version | Text Only | Print | Product List | Glossary Off
Versions: 1 2 3 4 5 6 7 8 9 10 11 12 13 14 15 16 17 18 19 20 21 22 23 24 25 26 27 28 29 30 31 32 33 34 35 36 37 38 39 40 41 42 43 44 45 46 47 48 49 50

000
ASUS43 KMKX 221400
RWRWI

WISCONSIN REGIONAL WEATHER ROUNDUP
NATIONAL WEATHER SERVICE MILWAUKEE/SULLIVAN WI
900 AM CDT MON MAY 22 2017

NOTE: "FAIR" INDICATES FEW OR NO CLOUDS BELOW 12,000 FEET WITH NO
SIGNIFICANT WEATHER AND/OR OBSTRUCTIONS TO VISIBILITY.

WIZ001-002-006>008-014>016-023>028-221500-
NORTHWEST WISCONSIN

CITY           SKY/WX    TMP DP  RH WIND       PRES   REMARKS
SUPERIOR ARPT  NOT AVBL
ASHLAND        CLOUDY    48  43  82 SW13      29.77F
HAYWARD        CLOUDY    48  43  82 SW7       29.80S
SIREN          CLOUDY    47  43  84 W9        29.82S
CUMBERLAND     PTSUNNY   48  43  81 W15       29.83S
RICE LAKE      MOSUNNY   48  44  84 SW9       29.85F
CHETEK         MOSUNNY   50  45  83 W7        29.84F
LADYSMITH      PTSUNNY   48  44  85 SW12      29.85S
EAU CLAIRE     NOT AVBL
MENOMONIE      MOSUNNY   53  45  74 SW8       29.86F
NEW RICHMOND   MOSUNNY   52  43  72 W9        29.85S
OSCEOLA        SUNNY     52  43  73 W10       29.87S
$$

WIZ003>005-009-010-017-018-221500-
NORTH CENTRAL WISCONSIN

CITY           SKY/WX    TMP DP  RH WIND       PRES   REMARKS
MANITOWISH WTR CLOUDY    44  44 100 SW6       29.79S
ARBOR VITAE    CLOUDY    46  43  91 W8        29.79S
WOODRUFF       CLOUDY    46  43  91 W8        29.79S
RHINELANDER    CLOUDY    47  44  90 W10       29.82S
EAGLE RIVER    CLOUDY    44  43  96 W9        29.80S
LAND O LAKES   CLOUDY    46  42  86 W6        29.80S
PHILLIPS       CLOUDY    45  44  97 SW10G16   29.81S
TOMAHAWK       CLOUDY    46  42  86 SW8       29.83S
MEDFORD        CLOUDY    45  42  90 SW7       29.85R
MERRILL        CLOUDY    47  44  91 W12       29.85S
$$

WIZ029-030-035-036-043>047-221500-
CENTRAL WISCONSIN

CITY           SKY/WX    TMP DP  RH WIND       PRES   REMARKS
WAUSAU         CLOUDY    49  43  80 W10G23    29.85S
MOSINEE        CLOUDY    48  45  87 W10G17    29.88S
MARSHFIELD     SUNNY     51  44  77 W10       29.86F
STEVENS POINT  PTSUNNY   48  41  76 W13       29.89S
WAUPACA        MOSUNNY   54  42  66 W12       29.90S
WAUTOMA        MOSUNNY   55  43  63 W14       29.92S
WISC RAPIDS    MOSUNNY   54  43  66 W12       29.90F
CAMP DOUGLAS   NOT AVBL
$$

WIZ011>013-019>022-031-037>040-048>050-221500-
NORTHEAST WISCONSIN

CITY           SKY/WX    TMP DP  RH WIND       PRES   REMARKS
ANTIGO         CLOUDY    45  42  92 W10       29.85R
SHAWANO        CLOUDY    51  43  73 W10G17    29.87S
OCONTO         CLOUDY    50  41  70 W17G24    29.85S
STURGEON BAY   CLOUDY    50  43  77 W15G24    29.85S
GREEN BAY      CLOUDY    52  44  74 W18G24    29.89R
MANITOWOC      NOT AVBL
APPLETON       PTSUNNY   52  39  62 W20       29.89
CLINTONVILLE   CLOUDY    50  41  71 W12G17    29.88S
OSHKOSH        SUNNY     53  42  66 W10G18    29.91R
$$

WIZ032>034-041-042-053>061-221500-
SOUTHWEST WISCONSIN

CITY           SKY/WX    TMP DP  RH WIND       PRES   REMARKS
LA CROSSE      SUNNY     56  44  64 S7        29.91S
SPARTA         SUNNY     53  44  70 W6        29.92F
VIROQUA        SUNNY     52  44  74 N7        29.93S
BOSCOBEL       CLOUDY    56  45  66 VRB7      29.95F
PRAIRIE DU CHI DRIZZLE   51  43  74 CALM      29.96S
PLATTEVILLE    CLOUDY    52  49  88 S9        29.98S
$$

WIZ056-057-062-063-064-067-068-221500-
SOUTH CENTRAL WISCONSIN

CITY           SKY/WX    TMP DP  RH WIND       PRES   REMARKS
REEDSBURG      SUNNY     53  44  71 SW6       29.93F
BARABOO/DELLS  SUNNY     53  43  70 SW3       29.93F
LONE ROCK      NOT AVBL
MINERAL POINT  MOSUNNY   54  48  82 S7        29.96F
MADISON        MOSUNNY   53  43  68 VRB7      29.96F
MIDDLETON      SUNNY     56  44  64 SW7       29.96F
WATERTOWN      SUNNY     53  44  72 SW9G18    29.96S
MONROE         SUNNY     54  43  66 SW10G20   29.98F
JANESVILLE     SUNNY     57  45  62 SW14      29.98F
$$

WIZ051-052-058>065-066-070>072-221500-
SOUTHEAST WISCONSIN

CITY           SKY/WX    TMP DP  RH WIND       PRES   REMARKS
MILWAUKEE      MOSUNNY   56  42  59 W16G24    29.98R
WAUKESHA       SUNNY     52  41  66 W9G17     29.98S
MILWAUKEE/TIMM SUNNY     54  39  58 W14G20    29.98R
RACINE         SUNNY     56  41  57 W13G21    30.00S
KENOSHA        SUNNY     56  41  57 W18       29.99F
FOND DU LAC    MOSUNNY   54  41  61 W12       29.93R
SHEBOYGAN      SUNNY     54  44  69 W16       29.92S
WEST BEND      SUNNY     52  41  66 W13G22    29.94S
JUNEAU         MOSUNNY   50  43  75 SW12      29.97R
$$

LSZ147-162-221500-
LAKE SUPERIOR

STATION/POSITION TIME  TEMP    WIND        PRES    WAVE
                       AIR SEA DIR/SP/G            HT/PER
                 (UTC) (F)     (DEG/KT/KT) (MB)    (FT/S)
W MID LAKE BUOY  1250   41 37  240/ 14/ 16 1007.2R   2/ 4
DEVILS ISLAND    1300   45     230/ 17/ 19 1007.5F
PORT WING        1230   47     220/  7/ 13 1008.1S
SAXON HARBOR     1340   49     210/  9/ 12 1008.1F
$$

LMZ867-665-643>646-221500-
LAKE MICHIGAN

STATION/POSITION TIME  TEMP    WIND        PRES    WAVE
                       AIR SEA DIR/SP/G            HT/PER
                 (UTC) (F)     (DEG/KT/KT) (MB)    (FT/S)
CHAMBERS ISLAND  1340   48     220/  6/ 11 1009.8S
N MID LAKE BUOY  1250   42 38  210/ 14/ 17 1010.5R   3/ 5
NORTHPORT PIER   1340   48     240/  5/ 11 1009.8S
KEWAUNEE LAKESHO 1330   51     270/ 16/ 21 1011.2R
SHEBOYGAN LAKESH 1300   50     270/ 14/ 17 1013.2R
PORT WASHINGTON  1330   56     260/ 11/ 15 1014.9R
MILWAUKEE LAKESH 1330   53     250/ 10/ 16   N/A
S MID LAKE BUOY  1250   47 44  240/ 14/ 16 1016.3R   2/ 4
KENOSHA   LAKESH 1300   53     250/  8/ 17 1015.9
$$

TC  - TEMPERATURE IN CELSIUS
VSB - VISIBILITY IN STATUTE MILES
WCI - WIND CHILL INDEX
HX  - HEAT INDEX





USA.gov is the U.S. government's official web portal to all federal, state and local government web resources and services.